SCP
0 0 0 0 0 0 0 0 0 0 0 0 0 0 0 2 3 3 2 2 1 1 2 2 2 2 2 2 2 2 1 1 0 1 1 0 0 1 2 1 1 1 1
0 0 0 0 0 0 0 0 0 0 0 0 0 0 0 0 0 1 2 3 2 2 2 2 2 3 2 2 1 2 2 1 1 1 1 1 1 0 1 1 1 1 2
0 0 0 0 0 0 0 0 0 0 0 0 0 0 0 0 0 0 0 1 2 2 2 2 2 2 3 2 2 2 1 1 1 1 1 1 1 0 0 1 2 2 2
0 0 0 0 0 0 0 0 0 0 0 0 0 0 0 0 0 0 0 0 0 0 2 2 2 2 2 2 2 2 2 1 1 0 1 1 0 0 0 2 2 2 2
0 0 0 0 0 0 0 0 0 0 0 0 0 0 0 0 0 0 0 0 0 0 0 0 2 2 2 2 2 2 2 2 2 2 1 1 1 3 2 1 2 2 2
0 0 0 0 0 0 0 0 0 0 0 0 0 0 0 0 0 0 0 0 0 0 0 0 0 0 2 2 2 2 2 2 2 2 1 1 1 1 4 3 2 1 2
0 0 0 0 0 0 0 0 0 0 0 0 0 0 0 0 0 0 0 0 0 0 0 0 0 0 0 1 2 2 2 1 2 2 2 1 1 1 1 2 1 2 1
0 0 0 0 0 0 0 0 0 0 0 0 0 0 0 0 0 0 0 0 0 -0 -0 -0 0 0 0 0 1 2 1 2 2 1 0 2 0 0 0 0 0 1 1
0 0 0 0 0 0 0 0 0 0 0 0 0 0 0 0 0 0 0 0 0 -0 -0 -0 -0 0 0 0 1 1 1 1 0 0 0 0 0 0 0 0 0 1 0
0 0 0 0 0 0 0 0 0 0 0 0 0 0 0 0 0 0 0 0 0 -0 -0 -0 -0 -0 -0 -0 0 0 0 0 0 0 0 0 0 0 0 0 0 0 0
0 0 0 0 0 0 0 0 0 0 0 0 0 0 0 0 0 0 0 0 0 0 -0 -0 -0 -0 -0 -0 -0 -0 0 0 0 0 0 0 0 0 0 0 0 0 0
0 0 0 0 0 0 0 0 0 0 0 0 0 0 0 0 0 0 0 0 0 0 -0 -0 -0 -0 -0 0 -0 -0 -0 0 0 0 0 0 0 0 0 0 0 0 0
0 0 0 0 0 0 0 0 0 0 0 0 0 0 0 0 0 0 0 0 0 0 0 -0 -0 -0 -0 0 0 0 0 0 1 0 0 0 0 0 0 0 0 0 0
0 0 0 0 0 0 0 0 0 0 0 0 0 0 0 0 0 0 0 0 0 0 0 0 -0 -0 -0 0 0 0 0 0 0 0 0 0 0 0 0 0 -0 -0 -0
0 0 0 0 0 0 0 0 0 0 0 0 0 0 0 0 0 0 0 0 0 0 0 -0 -0 -0 -0 -0 -0 0 0 0 0 0 0 0 0 0 0 0 0 0 0
0 0 0 0 0 0 0 0 0 0 0 0 0 0 0 0 0 0 0 0 0 0 0 0 0 0 -0 -0 -0 -0 0 0 0 0 0 0 0 0 0 0 0 0 0
0 0 0 0 0 0 0 0 0 0 0 0 0 0 0 0 0 0 0 0 0 0 0 0 0 0 -0 -0 0 -0 0 0 0 -0 -0 -0 -0 -0 0 0 0 0 0
0 0 0 -0 -0 0 0 0 0 0 0 0 0 0 0 0 0 0 0 0 0 0 0 0 0 0 -0 -0 0 0 0 0 -0 -0 -0 -0 0 0 0 0 0 0 0
0 -0 0 0 -0 0 0 0 0 0 0 0 0 0 0 0 0 0 0 0 0 0 0 0 0 0 0 -0 -0 0 0 0 0 0 0 0 0 -0 0 0 0 0 0
-0 -0 -0 0 0 0 0 0 0 0 0 0 0 0 0 0 0 0 0 0 0 0 0 0 0 0 -0 -0 -0 -0 -0 -0 -0 0 0 -0 0 0 0 0 0 0 0
-0 -0 -0 0 0 0 0 0 0 0 0 0 0 0 0 0 0 0 0 0 0 0 0 0 0 0 0 0 -0 0 -0 -0 -0 -0 -0 0 0 0 0 0 0 0 0
-0 -0 -0 -0 0 0 0 0 0 0 0 0 0 0 0 0 0 0 0 0 0 0 0 0 0 0 0 0 0 0 -0 -0 -0 0 0 0 0 0 0 0 0 0 0
-0 -0 -0 -0 0 0 0 0 0 0 0 0 0 0 0 0 0 0 0 0 0 0 0 0 0 0 0 -0 0 0 0 0 0 0 0 0 0 0 0 0 0 0 0
-0 -0 -0 -0 0 0 0 0 0 0 0 0 0 0 0 0 0 0 0 0 0 0 0 0 0 0 0 0 0 0 0 0 0 0 0 0 0 0 0 0 0 0 0
-0 -0 -0 0 0 0 0 0 0 0 0 0 0 0 0 0 0 0 0 0 0 0 0 0 0 0 0 0 0 0 0 0 0 0 0 0 0 0 0 0 0 0 0
-0 -0 0 -0 0 0 0 0 0 0 0 0 0 0 0 0 0 0 0 0 0 0 0 0 0 0 0 0 0 0 0 0 0 0 0 0 0 0 0 0 0 0 0
Wind_Speed_500mb
51 48 42 45 35 37 39 31 24 16 15 17 23 29 35 31 38 51 51 56 64 67 78 84 83 83 82 85 88 93 90 88 83 80 81 82 78 72 75 70 69 69 66
50 56 56 44 44 44 44 45 45 34 28 27 32 41 48 54 50 44 46 51 58 66 75 83 89 95 94 93 92 95 100 101 94 90 87 72 88 87 81 82 80 77 72
69 58 45 55 54 49 43 38 30 28 23 21 23 27 36 45 54 60 60 57 52 52 64 76 87 95 99 101 96 103 101 108 109 102 85 44 63 67 80 93 89 86 85
68 63 68 59 50 39 28 21 16 15 18 23 25 27 32 40 45 50 60 64 64 63 58 58 71 89 91 100 106 104 109 109 103 92 110 104 81 52 60 74 99 93 93
69 74 69 54 39 34 26 18 13 11 13 24 34 39 36 39 47 56 64 64 64 73 75 76 76 75 82 99 102 109 111 112 113 108 104 107 115 101 75 49 62 91 105
60 72 57 46 38 27 20 17 17 19 24 32 38 50 54 58 59 57 55 57 64 68 68 70 70 71 74 83 95 106 111 113 117 118 117 105 88 92 99 89 85 82 101
59 56 49 38 30 24 21 20 21 28 35 38 43 48 51 55 57 53 57 62 69 71 75 80 80 76 74 72 76 90 104 107 109 115 126 115 103 84 79 93 87 80 86
36 30 29 27 24 24 25 30 36 44 41 41 46 45 43 46 57 56 53 59 68 73 68 69 66 75 76 71 74 74 82 98 102 95 84 71 79 97 47 43 88 81 77
22 20 22 24 28 32 38 45 47 48 45 46 48 44 47 51 53 56 59 65 68 74 73 66 64 61 67 73 78 80 79 80 90 91 92 44 55 32 47 21 87 38 67
9 13 19 27 34 41 45 46 48 46 45 49 46 44 49 52 56 60 63 60 66 71 69 72 72 70 69 71 75 83 85 82 91 88 81 88 85 111 117 89 81 61 57
25 30 31 30 33 39 38 43 40 40 42 48 53 56 54 56 58 62 63 66 59 63 70 75 79 78 79 80 79 79 78 85 92 97 95 96 93 103 99 94 86 84 77
24 25 25 17 14 10 4 2 13 28 33 37 38 41 44 50 55 62 60 58 62 61 65 68 69 75 79 82 82 78 72 78 85 93 93 97 98 98 76 73 83 79 108
30 28 27 26 22 18 18 19 24 30 34 38 39 39 38 38 43 55 63 66 70 67 63 71 69 75 78 78 81 87 81 85 80 82 88 102 95 70 65 68 68 78 92
32 36 39 41 42 46 48 49 51 52 53 55 58 58 55 52 50 53 51 58 67 67 60 66 67 74 83 84 88 94 79 83 73 79 97 92 68 57 54 56 56 51 65
38 46 53 61 67 72 77 80 83 87 92 95 97 100 97 91 87 74 59 50 51 61 59 59 64 70 76 80 79 83 82 93 65 77 74 71 56 56 66 67 48 45 62
39 49 61 69 72 74 76 79 84 92 97 106 117 122 120 118 114 111 104 86 71 55 54 57 59 66 67 67 69 74 62 59 45 60 68 72 72 70 62 50 30 44 49
50 64 72 72 75 77 80 89 98 99 94 92 94 93 92 92 89 87 84 83 84 64 54 51 52 58 50 53 53 75 29 32 42 50 51 72 65 54 52 34 43 37 34
65 68 67 72 84 98 112 115 110 96 82 80 80 80 80 77 70 68 67 64 65 79 76 52 52 50 48 49 49 26 38 29 43 45 42 52 46 52 52 46 46 36 28
58 66 87 102 108 106 93 87 82 79 77 77 74 69 51 70 74 64 48 48 58 63 59 56 52 45 41 47 25 21 7 48 39 26 27 40 47 51 48 45 39 31 22
84 91 100 91 83 81 77 77 77 78 78 75 74 69 66 56 69 60 59 60 60 54 55 73 51 40 38 40 30 40 46 51 46 32 37 49 52 46 37 28 29 20 12
90 88 82 75 76 75 73 74 73 75 73 68 65 67 68 63 60 51 46 49 47 54 53 45 54 43 31 33 37 48 65 55 52 51 53 45 32 29 27 26 18 9 4
85 70 73 75 75 69 67 72 74 72 69 65 63 61 58 52 45 46 49 38 41 45 49 36 34 36 33 26 4 47 62 55 65 53 42 36 33 30 26 20 8 7 15
71 73 72 77 73 68 65 72 68 62 61 62 61 57 49 45 40 41 34 37 38 42 46 30 36 29 23 34 24 39 54 58 57 49 39 37 36 29 25 20 6 18 17
73 74 73 72 75 68 64 60 59 56 59 57 52 46 40 38 30 31 28 39 37 36 51 31 29 22 21 12 33 27 46 35 45 41 38 37 35 34 27 13 19 20 14
69 65 64 67 69 65 62 58 54 52 48 53 41 36 35 29 27 26 28 32 36 33 38 28 26 24 28 34 25 34 47 54 54 46 46 42 33 26 20 22 22 19 14
60 59 59 61 60 58 55 52 46 36 39 42 36 36 30 29 24 24 23 18 26 27 27 33 27 24 24 33 38 36 29 50 49 45 39 35 33 29 29 32 26 17 16
Wind_Direction_500mb
233 241 228 234 216 201 210 208 208 197 199 219 242 258 272 273 264 265 268 268 272 270 271 269 265 259 256 260 257 251 251 251 250 252 250 252 249 249 244 242 239 240 242
232 234 237 212 200 192 197 211 221 226 241 256 265 275 280 281 278 273 275 277 276 269 267 269 272 271 266 258 257 254 248 250 251 249 248 246 250 249 246 240 240 243 245
230 226 196 190 188 188 192 200 209 227 256 273 278 283 283 282 283 281 278 274 277 284 274 269 271 271 272 270 263 256 252 248 249 245 238 240 245 253 256 246 241 241 244
233 215 185 177 181 181 183 195 214 237 253 275 283 287 293 299 301 297 292 285 279 278 280 286 278 272 271 271 271 266 257 254 249 245 244 241 246 252 253 254 245 242 240
230 204 178 174 174 174 177 197 216 218 259 283 292 299 301 297 296 297 300 297 290 285 286 281 277 283 281 272 272 270 265 262 258 246 243 243 243 242 247 261 262 252 242
194 164 162 164 167 177 203 222 222 244 268 283 292 297 293 295 299 298 297 301 302 301 297 297 294 287 283 281 278 273 271 267 264 263 251 237 239 239 236 242 246 268 254
145 151 157 165 175 190 206 228 252 270 281 285 285 281 284 290 288 288 293 296 302 304 306 304 297 296 291 287 283 277 273 270 266 266 262 248 240 243 248 241 240 233 249
148 162 171 184 202 222 239 258 277 286 276 272 273 273 273 276 278 280 280 287 297 304 312 316 305 296 297 294 292 289 277 272 271 272 263 233 268 230 248 6 262 234 246
173 198 217 231 253 259 269 271 270 253 257 263 262 259 270 266 264 271 278 283 292 296 305 315 317 302 296 294 288 284 282 276 267 260 259 253 232 267 308 311 335 261 245
290 270 262 260 259 263 269 265 247 255 257 257 262 264 269 267 269 275 282 287 297 302 306 312 314 322 311 301 292 287 281 277 271 263 266 259 268 261 262 288 268 293 272
302 306 302 315 293 276 271 256 247 249 256 268 269 266 268 273 275 278 283 289 295 301 307 309 310 311 315 318 304 298 288 276 273 269 265 266 259 252 262 257 259 256 236
50 50 60 52 54 48 55 350 268 256 258 262 262 266 272 275 277 283 283 285 291 298 304 312 310 307 310 314 309 294 301 277 268 268 265 260 256 246 250 247 248 238 212
41 30 19 18 9 355 334 314 294 282 273 275 270 265 267 271 279 280 285 286 289 292 298 307 309 312 309 308 313 299 290 288 264 261 261 257 247 233 234 225 214 221 222
17 3 352 344 334 325 318 310 303 300 297 295 293 293 288 287 285 275 278 281 284 286 294 297 304 310 310 309 304 301 290 293 267 261 256 251 227 225 230 205 193 182 191
352 345 339 332 326 321 316 310 305 302 300 299 296 294 291 287 285 280 277 279 289 289 293 294 300 305 311 314 310 302 292 283 262 251 242 216 223 231 188 175 192 206 218
345 335 326 322 319 315 309 305 302 301 300 296 296 295 293 287 284 282 280 275 277 292 286 290 295 300 311 313 315 309 286 246 239 255 238 230 220 198 191 200 203 226 219
330 326 323 316 311 308 304 302 302 301 297 292 290 288 286 287 287 284 282 275 273 276 281 281 290 297 307 294 309 332 259 244 208 234 219 204 196 199 199 205 184 191 196
323 317 311 307 306 305 305 305 301 300 295 292 289 287 287 285 282 284 280 269 265 260 269 273 279 289 301 305 295 333 351 214 198 198 196 199 197 204 183 164 170 169 164
311 309 308 309 307 306 309 309 305 300 298 294 293 293 280 289 287 285 280 273 261 258 253 261 269 278 292 290 268 262 113 132 160 176 170 148 142 148 155 157 149 142 146
313 315 313 312 313 312 310 307 304 302 300 298 295 293 294 282 288 284 276 275 269 272 269 241 257 268 283 275 273 211 210 202 208 176 170 163 155 150 152 152 149 145 147
317 318 316 309 309 314 317 312 311 305 308 307 297 291 292 290 286 284 278 276 270 260 261 249 241 254 255 272 272 213 196 209 196 166 162 165 161 154 156 150 142 108 351
321 316 313 317 323 326 324 316 310 314 312 310 307 300 298 293 284 278 275 269 265 259 249 258 236 238 246 268 150 194 210 191 183 179 174 165 166 167 160 156 149 347 320
316 324 326 325 326 328 324 315 319 322 319 311 306 303 301 296 283 282 269 263 259 253 226 256 234 232 256 259 233 168 185 182 179 173 170 168 169 185 190 186 268 304 291
328 332 330 328 326 330 328 324 322 323 322 315 307 305 300 302 289 283 272 256 259 246 236 244 230 223 235 229 245 210 194 178 177 179 176 176 170 172 182 220 292 277 259
331 330 329 327 328 332 331 330 326 317 317 321 314 312 311 312 294 293 269 252 238 233 229 219 216 208 206 212 216 209 177 179 175 164 169 173 181 191 220 276 265 239 254
332 332 332 333 334 336 339 343 338 330 331 320 326 323 315 317 297 319 275 248 237 234 223 222 195 220 204 198 200 194 202 200 191 192 202 209 224 235 250 257 230 246 276
Wind_Speed_850mb
51 48 42 45 35 37 39 31 24 16 15 17 23 29 35 31 38 51 51 56 64 67 78 84 83 83 82 85 88 93 90 88 83 80 81 82 78 72 75 70 69 69 66
50 56 56 44 44 44 44 45 45 34 28 27 32 41 48 54 50 44 46 51 58 66 75 83 89 95 94 93 92 95 100 101 94 90 87 72 88 87 81 82 80 77 72
69 58 45 55 54 49 43 38 30 28 23 21 23 27 36 45 54 60 60 57 52 52 64 76 87 95 99 101 96 103 101 108 109 102 85 44 63 67 80 93 89 86 85
68 63 68 59 50 39 28 21 16 15 18 23 25 27 32 40 45 50 60 64 64 63 58 58 71 89 91 100 106 104 109 109 103 92 110 104 81 52 60 74 99 93 93
69 74 69 54 39 34 26 18 13 11 13 24 34 39 36 39 47 56 64 64 64 73 75 76 76 75 82 99 102 109 111 112 113 108 104 107 115 101 75 49 62 91 105
60 72 57 46 38 27 20 17 17 19 24 32 38 50 54 58 59 57 55 57 64 68 68 70 70 71 74 83 95 106 111 113 117 118 117 105 88 92 99 89 85 82 101
59 56 49 38 30 24 21 20 21 28 35 38 43 48 51 55 57 53 57 62 69 71 75 80 80 76 74 72 76 90 104 107 109 115 126 115 103 84 79 93 87 80 86
36 30 29 27 24 24 25 30 36 44 41 41 46 45 43 46 57 56 53 59 68 73 68 69 66 75 76 71 74 74 82 98 102 95 84 71 79 97 47 43 88 81 77
22 20 22 24 28 32 38 45 47 48 45 46 48 44 47 51 53 56 59 65 68 74 73 66 64 61 67 73 78 80 79 80 90 91 92 44 55 32 47 21 87 38 67
9 13 19 27 34 41 45 46 48 46 45 49 46 44 49 52 56 60 63 60 66 71 69 72 72 70 69 71 75 83 85 82 91 88 81 88 85 111 117 89 81 61 57
25 30 31 30 33 39 38 43 40 40 42 48 53 56 54 56 58 62 63 66 59 63 70 75 79 78 79 80 79 79 78 85 92 97 95 96 93 103 99 94 86 84 77
24 25 25 17 14 10 4 2 13 28 33 37 38 41 44 50 55 62 60 58 62 61 65 68 69 75 79 82 82 78 72 78 85 93 93 97 98 98 76 73 83 79 108
30 28 27 26 22 18 18 19 24 30 34 38 39 39 38 38 43 55 63 66 70 67 63 71 69 75 78 78 81 87 81 85 80 82 88 102 95 70 65 68 68 78 92
32 36 39 41 42 46 48 49 51 52 53 55 58 58 55 52 50 53 51 58 67 67 60 66 67 74 83 84 88 94 79 83 73 79 97 92 68 57 54 56 56 51 65
38 46 53 61 67 72 77 80 83 87 92 95 97 100 97 91 87 74 59 50 51 61 59 59 64 70 76 80 79 83 82 93 65 77 74 71 56 56 66 67 48 45 62
39 49 61 69 72 74 76 79 84 92 97 106 117 122 120 118 114 111 104 86 71 55 54 57 59 66 67 67 69 74 62 59 45 60 68 72 72 70 62 50 30 44 49
50 64 72 72 75 77 80 89 98 99 94 92 94 93 92 92 89 87 84 83 84 64 54 51 52 58 50 53 53 75 29 32 42 50 51 72 65 54 52 34 43 37 34
65 68 67 72 84 98 112 115 110 96 82 80 80 80 80 77 70 68 67 64 65 79 76 52 52 50 48 49 49 26 38 29 43 45 42 52 46 52 52 46 46 36 28
58 66 87 102 108 106 93 87 82 79 77 77 74 69 51 70 74 64 48 48 58 63 59 56 52 45 41 47 25 21 7 48 39 26 27 40 47 51 48 45 39 31 22
84 91 100 91 83 81 77 77 77 78 78 75 74 69 66 56 69 60 59 60 60 54 55 73 51 40 38 40 30 40 46 51 46 32 37 49 52 46 37 28 29 20 12
90 88 82 75 76 75 73 74 73 75 73 68 65 67 68 63 60 51 46 49 47 54 53 45 54 43 31 33 37 48 65 55 52 51 53 45 32 29 27 26 18 9 4
85 70 73 75 75 69 67 72 74 72 69 65 63 61 58 52 45 46 49 38 41 45 49 36 34 36 33 26 4 47 62 55 65 53 42 36 33 30 26 20 8 7 15
71 73 72 77 73 68 65 72 68 62 61 62 61 57 49 45 40 41 34 37 38 42 46 30 36 29 23 34 24 39 54 58 57 49 39 37 36 29 25 20 6 18 17
73 74 73 72 75 68 64 60 59 56 59 57 52 46 40 38 30 31 28 39 37 36 51 31 29 22 21 12 33 27 46 35 45 41 38 37 35 34 27 13 19 20 14
69 65 64 67 69 65 62 58 54 52 48 53 41 36 35 29 27 26 28 32 36 33 38 28 26 24 28 34 25 34 47 54 54 46 46 42 33 26 20 22 22 19 14
60 59 59 61 60 58 55 52 46 36 39 42 36 36 30 29 24 24 23 18 26 27 27 33 27 24 24 33 38 36 29 50 49 45 39 35 33 29 29 32 26 17 16
Wind_Direction_850mb
233 241 228 234 216 201 210 208 208 197 199 219 242 258 272 273 264 265 268 268 272 270 271 269 265 259 256 260 257 251 251 251 250 252 250 252 249 249 244 242 239 240 242
232 234 237 212 200 192 197 211 221 226 241 256 265 275 280 281 278 273 275 277 276 269 267 269 272 271 266 258 257 254 248 250 251 249 248 246 250 249 246 240 240 243 245
230 226 196 190 188 188 192 200 209 227 256 273 278 283 283 282 283 281 278 274 277 284 274 269 271 271 272 270 263 256 252 248 249 245 238 240 245 253 256 246 241 241 244
233 215 185 177 181 181 183 195 214 237 253 275 283 287 293 299 301 297 292 285 279 278 280 286 278 272 271 271 271 266 257 254 249 245 244 241 246 252 253 254 245 242 240
230 204 178 174 174 174 177 197 216 218 259 283 292 299 301 297 296 297 300 297 290 285 286 281 277 283 281 272 272 270 265 262 258 246 243 243 243 242 247 261 262 252 242
194 164 162 164 167 177 203 222 222 244 268 283 292 297 293 295 299 298 297 301 302 301 297 297 294 287 283 281 278 273 271 267 264 263 251 237 239 239 236 242 246 268 254
145 151 157 165 175 190 206 228 252 270 281 285 285 281 284 290 288 288 293 296 302 304 306 304 297 296 291 287 283 277 273 270 266 266 262 248 240 243 248 241 240 233 249
148 162 171 184 202 222 239 258 277 286 276 272 273 273 273 276 278 280 280 287 297 304 312 316 305 296 297 294 292 289 277 272 271 272 263 233 268 230 248 6 262 234 246
173 198 217 231 253 259 269 271 270 253 257 263 262 259 270 266 264 271 278 283 292 296 305 315 317 302 296 294 288 284 282 276 267 260 259 253 232 267 308 311 335 261 245
290 270 262 260 259 263 269 265 247 255 257 257 262 264 269 267 269 275 282 287 297 302 306 312 314 322 311 301 292 287 281 277 271 263 266 259 268 261 262 288 268 293 272
302 306 302 315 293 276 271 256 247 249 256 268 269 266 268 273 275 278 283 289 295 301 307 309 310 311 315 318 304 298 288 276 273 269 265 266 259 252 262 257 259 256 236
50 50 60 52 54 48 55 350 268 256 258 262 262 266 272 275 277 283 283 285 291 298 304 312 310 307 310 314 309 294 301 277 268 268 265 260 256 246 250 247 248 238 212
41 30 19 18 9 355 334 314 294 282 273 275 270 265 267 271 279 280 285 286 289 292 298 307 309 312 309 308 313 299 290 288 264 261 261 257 247 233 234 225 214 221 222
17 3 352 344 334 325 318 310 303 300 297 295 293 293 288 287 285 275 278 281 284 286 294 297 304 310 310 309 304 301 290 293 267 261 256 251 227 225 230 205 193 182 191
352 345 339 332 326 321 316 310 305 302 300 299 296 294 291 287 285 280 277 279 289 289 293 294 300 305 311 314 310 302 292 283 262 251 242 216 223 231 188 175 192 206 218
345 335 326 322 319 315 309 305 302 301 300 296 296 295 293 287 284 282 280 275 277 292 286 290 295 300 311 313 315 309 286 246 239 255 238 230 220 198 191 200 203 226 219
330 326 323 316 311 308 304 302 302 301 297 292 290 288 286 287 287 284 282 275 273 276 281 281 290 297 307 294 309 332 259 244 208 234 219 204 196 199 199 205 184 191 196
323 317 311 307 306 305 305 305 301 300 295 292 289 287 287 285 282 284 280 269 265 260 269 273 279 289 301 305 295 333 351 214 198 198 196 199 197 204 183 164 170 169 164
311 309 308 309 307 306 309 309 305 300 298 294 293 293 280 289 287 285 280 273 261 258 253 261 269 278 292 290 268 262 113 132 160 176 170 148 142 148 155 157 149 142 146
313 315 313 312 313 312 310 307 304 302 300 298 295 293 294 282 288 284 276 275 269 272 269 241 257 268 283 275 273 211 210 202 208 176 170 163 155 150 152 152 149 145 147
317 318 316 309 309 314 317 312 311 305 308 307 297 291 292 290 286 284 278 276 270 260 261 249 241 254 255 272 272 213 196 209 196 166 162 165 161 154 156 150 142 108 351
321 316 313 317 323 326 324 316 310 314 312 310 307 300 298 293 284 278 275 269 265 259 249 258 236 238 246 268 150 194 210 191 183 179 174 165 166 167 160 156 149 347 320
316 324 326 325 326 328 324 315 319 322 319 311 306 303 301 296 283 282 269 263 259 253 226 256 234 232 256 259 233 168 185 182 179 173 170 168 169 185 190 186 268 304 291
328 332 330 328 326 330 328 324 322 323 322 315 307 305 300 302 289 283 272 256 259 246 236 244 230 223 235 229 245 210 194 178 177 179 176 176 170 172 182 220 292 277 259
331 330 329 327 328 332 331 330 326 317 317 321 314 312 311 312 294 293 269 252 238 233 229 219 216 208 206 212 216 209 177 179 175 164 169 173 181 191 220 276 265 239 254
332 332 332 333 334 336 339 343 338 330 331 320 326 323 315 317 297 319 275 248 237 234 223 222 195 220 204 198 200 194 202 200 191 192 202 209 224 235 250 257 230 246 276